Aswan, Egypt

2:01 PM EET on January 20, 2018 (GMT +0200)
Aswan

Weather History for HESN - August, 2013

Change the Weather History Date:

Saturday, August 17, 2013

  Actual Average Record
Temperature  
Mean Temperature 94 °F -  
Max Temperature 106 °F 103 °F 114 °F (2015)
Min Temperature 82 °F 79 °F 72 °F (2015)
Cooling Degree Days 29    
Growing Degree Days 44 (Base 50)    
Moisture  
Dew Point 46 °F    
Average Humidity 17    
Maximum Humidity 26    
Minimum Humidity 8    
Precipitation  
Precipitation 0.00 in 0.00 in - ()
Sea Level Pressure  
Sea Level Pressure 29.68 in    
Wind  
Wind Speed 5 mph ()    
Max Wind Speed 10 mph    
Max Gust Speed -    
Visibility 6.0 miles    
Events      
Averages and records for this station are not official NWS values.
T = Trace of Precipitation, MM = Missing Value Source: Averaged Metar Reports

Daily Weather History Graph

Daily Weather History Graph

Search for Another Location

Airport or City:

Trip Planner

Search our weather history database for the weather conditions in past years. The results will help you decide how hot, cold, wet, or windy it might be!

Date:

Astronomy

Aug. 17, 2013 Rise Set
Actual Time 5:24 AM EET 6:20 PM EET
Civil Twilight 5:01 AM EET 6:44 PM EET
Nautical Twilight 4:33 AM EET 7:11 PM EET
Astronomical Twilight 4:05 AM EET 7:40 PM EET
Moon 3:06 PM EET (8/17) 1:19 AM EET (8/17)
Length of Visible Light 13h 42m
Length of Day
12h 55m
Waxing Gibbous, 82% of the Moon is Illuminated
Aug 17
Waxing Gibbous
Aug 21
Full
Aug 28
Last Quarter
Sep 5
New
Sep 12
First Quarter

Hourly Weather History & Observations

Time (EET) Temp. Dew Point Humidity Pressure Visibility Wind Dir Wind Speed Gust Speed Precip Events Conditions
12:00 AM 89.6 °F 39.2 °F 17% 29.71 in - WNW 8.1 mph - N/A   Clear
1:00 AM 87.8 °F 41.0 °F 19% 29.71 in - NW 10.4 mph - N/A   Clear
2:00 AM 87 °F 42 °F 12% 29.67 in 6 mi NW 6.9 mph - -  
2:00 AM 86.0 °F 42.8 °F 22% 29.68 in - NW 6.9 mph - N/A   Clear
4:00 AM 86.0 °F 42.8 °F 22% 29.68 in - West 3.5 mph - N/A   Clear
6:00 AM 82.4 °F 44.6 °F 26% 29.68 in - SSW 1.2 mph - N/A   Clear
7:00 AM 87.8 °F 46.4 °F 24% 29.71 in - SW 1.2 mph - N/A   Clear
8:00 AM 90 °F 46 °F 13% 29.68 in 6 mi West 4.6 mph - -  
8:00 AM 91.4 °F 46.4 °F 21% 29.71 in - West 4.6 mph - N/A   Clear
9:00 AM 93.2 °F 48.2 °F 21% 29.71 in - WNW 5.8 mph - N/A   Clear
10:00 AM 96.8 °F 50.0 °F 20% 29.71 in - NW 4.6 mph - N/A   Clear
11:00 AM 100.4 °F 48.2 °F 17% 29.71 in - West 3.5 mph - N/A   Clear
12:00 PM 102.2 °F 48.2 °F 16% 29.68 in - South 5.8 mph - N/A   Clear
1:00 PM 104.0 °F 48.2 °F 15% 29.68 in - ESE 9.2 mph - N/A   Clear
2:00 PM 105 °F 48 °F 8% 29.61 in 6 mi SE 10.4 mph - -  
2:00 PM 104.0 °F 48.2 °F 15% 29.65 in - SE 10.4 mph - N/A   Clear
3:00 PM 104.0 °F 46.4 °F 14% 29.65 in - East 5.8 mph - N/A   Clear
4:00 PM 105.8 °F 46.4 °F 14% 29.62 in - North 6.9 mph - N/A   Clear
5:00 PM 105.8 °F 44.6 °F 13% 29.62 in - ESE 5.8 mph - N/A   Clear
6:00 PM 104.0 °F 46.4 °F 14% 29.65 in - SE 5.8 mph - N/A   Clear
7:00 PM 100.4 °F 46.4 °F 16% 29.65 in - SSE 5.8 mph - N/A   Clear
8:00 PM 99 °F 48 °F 10% 29.63 in 6 mi SSW 3.5 mph - -  
8:00 PM 98.6 °F 48.2 °F 18% 29.68 in - SSW 3.5 mph - N/A   Clear
9:00 PM 98.6 °F 48.2 °F 18% 29.68 in - SSW 5.8 mph - N/A   Clear
10:00 PM 96.8 °F 48.2 °F 19% 29.71 in - WSW 5.8 mph - N/A   Clear
11:00 PM 93.2 °F 46.4 °F 20% 29.71 in - Calm Calm - N/A   Clear